Regional Weather Roundup
Issued by NWS

Home | Current Version | Previous Version | Text Only | Print | Product List | Glossary On
Versions: 1 2 3 4 5 6 7 8 9 10 11 12 13 14 15 16 17 18 19 20 21 22 23 24 25 26 27
000
ASCA42 TJSJ 190310
RWRPR
PUERTO RICO/U.S. VIRGIN ISLANDS HOURLY WEATHER ROUNDUP
NATIONAL WEATHER SERVICE SAN JUAN PR
1100 PM AST WED OCT 18 2017

PRZ001>002-007>008-010-190400-
PUERTO RICO

CITY           SKY/WX    TMP DP  RH WIND       PRES   REMARKS
SAN JUAN LMM   PTCLDY    82  79  89 E9        30.02S HX  93
PONCE          MOCLDY    77  70  78 VRB2      30.00S FOG
AGUADILLA      CLEAR     79  72  78 E7        30.03S
$$

VIZ001>002-190400-
U.S. VIRGIN ISLANDS

CITY           SKY/WX    TMP DP  RH WIND       PRES   REMARKS
CHARLOTTE AMA    N/A     82  72  69 VRB3      30.02S
$$

HOURLY WEATHER ROUNDUP FOR THE NEWS MEDIA

CITY           SKY/WX    TMP DP  RH WIND       PRES   REMARKS
NEW YORK       CLEAR     60  52  74 SW8       30.30S
NEWARK         CLEAR     59  47  64 SW8       30.29S
CHICAGO        PTCLDY    64  42  44 SW13      30.04R
HARTFORD       CLEAR     48  46  93 CALM      30.28S
BOSTON         CLEAR     57  46  66 S5        30.27S
DALLAS         MOCLDY    69  45  41 SE9       30.10R
PHILADELPHIA   CLEAR     58  50  75 S5        30.31F
LOS ANGELES    CLEAR     68  61  78 SW10      29.89S
WASHINGTON DC  PTCLDY    49  45  86 S3        30.31R



USA.gov is the U.S. government's official web portal to all federal, state and local government web resources and services.